Wind_Speed
28 28 27 25 25 25 25 23 21 19 18 18 18 18 17 16 15 14 13 12 11 10 10 10 10 9 9 9 9 9 10 11 12 13 14 16 17 18 20 21 22 22 23 24
31 30 30 28 26 26 26 25 24 23 21 21 20 19 18 17 16 15 15 15 14 13 12 12 12 11 11 11 11 11 11 12 13 14 14 15 16 18 19 21 22 22 24 25
33 33 34 33 29 28 28 26 26 25 24 24 23 22 21 20 18 17 17 17 16 15 14 13 13 13 13 12 12 12 12 13 14 15 16 16 17 18 19 21 22 23 24 25
33 34 36 31 29 29 29 28 28 28 26 26 25 24 23 22 21 20 20 19 18 17 16 16 15 15 15 15 14 14 14 15 15 15 16 17 18 19 20 22 23 24 25 27
33 33 34 32 31 29 29 29 29 29 27 27 26 25 23 23 23 22 21 20 20 19 19 18 17 17 18 18 16 15 16 16 17 17 17 18 19 21 22 23 24 26 27 28
33 33 33 32 31 29 30 31 29 29 28 27 27 27 25 24 24 23 22 22 21 21 21 20 20 19 19 19 19 18 18 18 19 19 20 21 22 22 23 24 25 27 28 30
31 32 32 31 29 29 30 30 29 29 29 28 28 28 26 26 26 24 24 23 23 22 22 22 21 21 21 20 20 21 21 21 21 22 23 24 24 24 25 26 27 29 30 31
29 31 31 29 28 30 30 29 29 29 29 29 29 28 28 28 27 27 26 25 25 25 24 24 24 23 23 23 22 22 23 23 23 24 25 26 26 27 27 28 30 31 32 34
28 29 28 27 28 28 29 29 29 29 30 30 29 28 29 29 29 28 28 27 26 26 26 26 26 25 25 25 24 24 24 25 26 26 26 27 27 28 29 30 31 33 34 35
26 27 27 27 26 26 27 27 28 29 29 29 29 28 29 30 30 29 29 28 27 27 27 26 27 27 26 26 26 26 26 26 26 27 27 27 28 29 30 31 33 34 36 37
25 25 25 25 25 24 25 26 27 28 28 29 29 29 30 31 30 29 29 28 27 27 27 27 27 26 26 26 26 26 26 26 27 28 28 28 29 30 32 33 34 36 37 39
21 22 22 21 22 22 23 24 25 26 27 28 28 29 30 30 29 29 29 28 28 28 27 26 26 25 25 25 25 25 26 26 27 28 28 30 31 33 34 35 36 38 39 41
15 16 17 17 18 19 21 22 23 24 24 25 25 26 28 30 30 29 28 28 28 27 26 24 23 23 23 24 24 25 26 27 28 29 30 31 33 35 36 37 39 41 42 44
13 14 14 15 16 17 18 19 21 23 23 24 24 25 26 28 29 28 26 25 24 23 23 22 22 23 23 24 25 25 27 28 29 30 32 33 35 37 39 41 42 44 45 47
10 12 13 14 16 16 17 19 20 21 21 22 23 23 23 23 23 22 20 19 19 20 20 21 22 22 23 24 25 26 28 30 31 33 34 36 38 40 42 44 45 47 49 50
9 10 11 12 13 14 15 17 17 17 19 20 20 20 19 19 19 19 19 18 17 17 19 20 21 22 23 24 26 28 30 32 34 36 38 39 41 42 44 46 48 49 50 50
9 9 9 10 10 10 12 13 14 16 16 17 17 16 16 16 16 15 15 15 16 17 18 19 21 23 24 27 28 30 32 34 36 38 40 41 43 45 46 47 48 48 48 48
9 9 9 9 9 10 10 11 12 12 13 13 14 14 13 12 12 13 14 15 16 18 19 21 23 25 27 29 31 33 35 37 38 40 41 43 44 46 46 46 46 46 46 45
10 10 10 10 10 10 9 9 9 9 9 9 9 9 9 10 11 12 14 16 18 20 22 24 26 28 30 32 34 36 37 39 40 42 43 43 44 44 44 44 43 43 42 42
10 9 9 9 8 8 8 7 7 7 7 7 8 9 10 12 13 15 17 19 21 23 25 27 29 31 32 34 36 38 39 40 41 42 42 43 42 42 41 41 40 39 39 38
10 9 8 8 7 7 7 6 7 7 8 9 10 12 13 15 17 19 21 23 25 26 28 29 31 33 35 36 38 39 40 40 41 41 41 41 40 39 38 38 37 37 36 36
10 10 9 8 8 8 8 9 9 10 11 12 14 15 17 19 21 22 24 26 27 29 30 32 33 35 36 38 39 40 40 40 40 40 39 38 37 36 36 35 34 34 33 33
11 10 10 10 10 10 11 11 11 12 14 15 17 19 20 22 23 25 27 28 29 31 32 34 35 36 37 38 39 39 38 38 37 36 35 35 34 33 33 32 31 31 31 31
10 10 10 10 11 11 12 12 13 15 17 18 20 22 23 24 26 28 29 30 31 33 34 35 35 36 37 37 36 35 35 34 33 32 32 31 31 30 30 30 30 29 29 29
11 11 12 12 12 13 14 15 17 18 20 21 23 24 25 27 28 29 30 31 33 33 34 34 34 34 34 33 32 32 31 30 30 29 29 29 28 28 28 27 27 27 27 27
12 12 13 14 15 16 17 18 20 21 22 24 25 26 27 28 29 30 31 32 32 32 32 32 32 31 31 30 29 28 28 28 28 27 27 27 26 26 26 26 26 25 25 25
13 14 15 16 18 19 20 21 23 24 25 26 26 27 27 28 29 30 31 31 31 31 30 30 30 29 28 28 26 26 25 25 25 25 25 25 25 24 24 24 24 24 24 23
Wind_Direction
240 241 247 248 248 250 251 251 254 256 258 260 266 271 272 275 276 276 276 277 280 280 279 283 284 277 270 269 269 267 263 257 255 253 252 251 253 254 255 256 257 262 262 262
249 250 251 250 249 251 253 253 253 253 254 257 261 264 266 266 268 271 269 269 272 275 275 276 275 272 270 268 268 270 270 267 264 258 256 255 257 260 261 261 264 267 268 269
250 252 254 253 252 253 253 251 251 252 252 253 254 258 260 260 261 265 265 268 268 270 273 271 270 269 267 267 267 270 271 271 268 263 261 261 263 264 265 266 268 269 271 272
250 251 253 255 254 253 252 252 252 252 250 249 249 253 255 255 257 259 262 263 263 265 267 267 267 266 265 265 267 268 270 271 268 268 268 267 268 269 270 271 272 272 274 275
251 253 256 255 254 254 254 252 250 251 249 247 246 248 251 252 254 255 259 260 260 262 265 265 264 266 265 264 267 271 272 271 268 267 270 272 273 275 274 273 274 275 276 277
251 252 254 255 254 253 253 251 248 248 247 246 245 245 248 249 250 252 256 257 257 261 263 262 263 264 264 263 265 269 272 271 271 269 272 275 275 276 276 275 276 277 277 277
252 253 254 253 253 250 250 249 245 244 243 242 241 242 243 244 246 249 251 253 255 258 259 260 260 262 261 263 265 267 269 270 271 271 272 274 274 275 276 276 278 278 279 279
251 252 254 254 252 249 248 247 243 241 240 239 239 240 239 240 242 246 248 250 252 254 255 256 257 259 260 261 263 266 267 269 271 272 272 273 274 275 276 277 279 280 280 280
251 252 254 253 250 247 245 243 240 238 238 237 236 235 236 239 241 243 245 247 249 252 253 256 258 259 259 261 263 266 269 271 273 274 273 272 274 276 278 279 280 281 282 282
252 252 252 250 248 246 243 240 237 236 236 234 233 234 234 237 239 241 244 246 248 251 254 256 257 259 260 262 264 266 269 272 273 274 275 276 277 279 280 281 283 284 284 284
253 251 250 248 245 243 239 234 232 231 231 230 230 233 235 237 239 240 243 246 247 250 254 258 257 256 258 261 263 267 270 273 275 277 277 278 280 283 284 284 285 285 286 286
251 247 244 242 241 238 234 230 228 227 227 227 229 231 232 234 235 238 243 243 245 249 253 256 256 257 259 263 266 269 273 275 277 278 280 282 284 285 286 288 288 288 289 289
243 237 236 236 233 230 227 225 223 221 221 223 226 228 231 232 233 238 241 243 245 249 253 254 255 258 261 265 269 272 274 277 279 282 284 286 288 289 290 290 291 291 291 291
237 233 231 224 218 219 219 218 217 218 218 220 224 226 229 231 233 236 237 239 245 249 252 253 255 260 264 268 272 275 278 281 283 286 288 289 291 292 293 293 293 293 293 293
226 224 225 219 213 214 214 210 209 212 215 217 218 222 224 227 229 232 236 239 243 247 252 255 260 265 270 273 277 280 282 284 287 289 291 293 294 294 295 295 295 296 296 296
210 206 207 202 201 202 201 200 204 207 208 210 212 216 220 223 227 232 236 239 246 252 257 263 268 272 275 279 282 284 286 289 291 292 294 295 296 296 297 298 298 298 298 299
195 191 191 189 188 192 193 195 198 201 205 209 210 214 218 223 228 234 240 247 255 261 265 270 275 279 283 285 287 290 292 293 294 295 296 297 298 298 299 300 300 300 300 301
182 178 175 176 176 181 184 190 193 196 201 205 207 210 216 223 231 241 249 257 264 270 275 280 284 287 289 290 292 293 295 296 296 297 298 299 299 300 300 301 302 302 302 302
184 181 180 180 179 182 182 186 191 198 201 207 213 222 233 241 250 260 268 274 278 280 283 286 288 290 292 293 294 296 297 297 298 298 299 300 301 301 302 302 303 304 304 304
181 182 183 185 189 192 194 201 209 218 225 234 243 253 260 265 271 275 279 282 284 286 288 290 292 293 294 295 297 298 298 299 299 300 301 302 302 303 303 304 304 305 305 305
190 190 194 199 201 207 211 221 233 244 253 258 263 269 274 278 281 283 285 287 289 291 292 293 294 295 297 298 299 299 300 300 301 302 302 303 304 304 304 305 305 306 306 306
200 204 213 217 225 232 238 245 251 257 264 270 275 279 282 284 285 287 289 291 292 293 294 295 296 298 299 300 300 300 301 301 302 303 304 304 304 304 304 305 306 307 307 308
208 215 223 229 236 244 251 258 264 269 274 278 281 284 286 287 288 290 291 292 293 295 296 297 298 299 300 300 301 302 303 304 305 305 305 305 304 304 305 306 307 308 309 309
217 223 231 237 245 252 259 266 273 278 282 284 286 287 288 289 290 291 293 294 295 296 298 299 300 301 302 302 302 302 303 305 305 306 306 307 307 306 307 308 309 310 311 312
231 237 245 252 257 262 268 274 280 284 286 287 288 289 291 292 293 294 295 296 297 298 299 300 302 303 304 304 304 304 305 305 306 307 308 309 309 309 310 311 312 313 314 315
243 249 254 259 264 270 276 280 284 286 288 289 290 291 293 294 295 296 297 298 300 300 301 302 303 304 305 305 305 305 305 306 307 308 309 310 311 312 313 314 315 315 316 316
255 261 266 270 274 278 281 283 286 288 289 291 292 293 294 295 297 298 299 300 301 302 303 303 304 304 304 305 305 305 306 307 309 310 312 312 313 313 314 315 316 318 318 319
Height
5810 5812 5814 5816 5818 5819 5821 5823 5826 5828 5828 5829 5827 5827 5827 5826 5826 5826 5826 5826 5826 5826 5826 5825 5825 5825 5825 5825 5825 5825 5825 5826 5827 5827 5828 5829 5830 5831 5832 5833 5834 5834 5835 5835
5801 5804 5805 5807 5810 5812 5814 5816 5818 5820 5822 5822 5822 5822 5822 5822 5822 5822 5822 5822 5822 5822 5822 5822 5822 5822 5822 5823 5823 5823 5823 5823 5823 5823 5824 5825 5826 5827 5827 5828 5828 5828 5828 5828
5793 5794 5795 5798 5803 5805 5806 5808 5810 5812 5815 5815 5815 5816 5816 5817 5817 5817 5817 5817 5818 5818 5819 5819 5819 5819 5819 5819 5820 5820 5820 5819 5819 5819 5820 5821 5822 5822 5822 5823 5823 5822 5822 5821
5783 5785 5785 5793 5794 5795 5797 5800 5802 5803 5805 5807 5808 5809 5810 5811 5812 5812 5813 5813 5813 5814 5814 5814 5815 5815 5815 5816 5816 5816 5816 5816 5815 5815 5816 5816 5817 5817 5817 5817 5817 5816 5815 5815
5774 5775 5777 5782 5784 5786 5788 5790 5793 5794 5796 5798 5800 5802 5803 5805 5806 5806 5807 5808 5808 5809 5809 5810 5810 5810 5811 5811 5812 5812 5812 5811 5811 5811 5811 5811 5812 5811 5811 5811 5810 5809 5809 5808
5764 5766 5769 5773 5774 5776 5779 5780 5784 5785 5787 5790 5792 5794 5797 5798 5799 5800 5801 5802 5803 5803 5804 5804 5805 5805 5806 5806 5807 5807 5807 5806 5806 5806 5806 5806 5806 5805 5805 5804 5803 5802 5801 5800
5755 5756 5759 5762 5765 5767 5770 5772 5774 5775 5778 5781 5783 5786 5789 5790 5792 5793 5795 5796 5797 5798 5798 5799 5799 5800 5801 5801 5801 5802 5801 5801 5801 5801 5800 5800 5799 5799 5798 5797 5795 5794 5792 5791
5746 5748 5752 5752 5755 5757 5759 5761 5764 5766 5769 5771 5774 5777 5780 5782 5785 5787 5788 5790 5791 5792 5792 5793 5794 5794 5795 5795 5796 5796 5795 5795 5795 5794 5794 5793 5792 5791 5790 5789 5787 5786 5784 5782
5738 5741 5742 5743 5744 5746 5749 5751 5754 5757 5760 5763 5766 5769 5772 5775 5777 5779 5781 5783 5784 5785 5786 5787 5788 5788 5789 5789 5789 5789 5789 5789 5788 5787 5786 5785 5784 5783 5782 5780 5779 5777 5775 5773
5729 5731 5732 5734 5735 5737 5740 5742 5746 5749 5751 5754 5758 5761 5764 5767 5769 5772 5774 5775 5777 5778 5779 5780 5781 5781 5782 5783 5783 5782 5782 5782 5781 5780 5779 5778 5777 5775 5774 5772 5770 5767 5765 5762
5721 5723 5724 5726 5727 5730 5732 5735 5738 5741 5743 5747 5750 5754 5757 5759 5762 5764 5766 5768 5769 5771 5772 5773 5774 5774 5775 5775 5775 5775 5775 5774 5773 5772 5771 5769 5768 5766 5764 5762 5760 5757 5755 5752
5714 5715 5717 5718 5720 5722 5725 5727 5730 5733 5736 5740 5743 5747 5749 5752 5755 5757 5759 5761 5762 5764 5765 5765 5766 5767 5767 5768 5768 5768 5767 5766 5765 5764 5762 5761 5759 5757 5754 5752 5749 5746 5743 5739
5708 5709 5710 5712 5713 5715 5718 5721 5724 5727 5730 5734 5737 5740 5743 5745 5748 5750 5752 5754 5755 5756 5758 5758 5759 5760 5760 5760 5760 5760 5759 5758 5757 5755 5753 5751 5749 5746 5744 5741 5737 5734 5730 5726
5704 5705 5706 5707 5708 5710 5713 5716 5719 5722 5725 5728 5731 5734 5737 5739 5742 5744 5745 5747 5748 5750 5751 5752 5753 5753 5753 5753 5753 5752 5751 5750 5748 5746 5744 5741 5738 5735 5732 5729 5725 5721 5717 5713
5701 5702 5703 5704 5705 5708 5710 5713 5715 5718 5721 5723 5726 5729 5732 5734 5736 5738 5740 5741 5742 5744 5745 5746 5746 5747 5747 5746 5746 5745 5743 5742 5739 5737 5734 5731 5728 5724 5720 5716 5712 5707 5703 5698
5699 5700 5701 5702 5704 5705 5708 5710 5713 5715 5718 5720 5722 5725 5727 5730 5732 5733 5735 5736 5737 5739 5740 5740 5741 5740 5740 5739 5738 5736 5735 5732 5730 5727 5724 5720 5716 5712 5708 5703 5698 5693 5688 5683
5698 5699 5700 5701 5703 5705 5706 5708 5711 5713 5716 5718 5720 5723 5724 5726 5728 5730 5731 5732 5733 5734 5734 5735 5734 5734 5733 5731 5730 5728 5725 5723 5719 5716 5713 5708 5704 5700 5695 5690 5685 5680 5675 5669
5698 5699 5701 5702 5704 5706 5707 5708 5710 5712 5714 5716 5718 5720 5722 5724 5725 5726 5727 5728 5729 5729 5729 5728 5728 5726 5725 5723 5721 5718 5715 5712 5709 5705 5701 5697 5692 5687 5683 5677 5672 5667 5662 5657
5697 5699 5701 5702 5704 5705 5707 5709 5710 5712 5714 5715 5717 5718 5720 5721 5722 5723 5724 5724 5724 5723 5723 5721 5720 5718 5716 5714 5711 5708 5705 5701 5698 5694 5690 5685 5680 5675 5670 5665 5660 5655 5650 5645
5697 5699 5700 5702 5704 5706 5707 5709 5710 5712 5713 5714 5715 5717 5717 5718 5718 5719 5719 5718 5718 5716 5715 5713 5711 5709 5707 5704 5701 5698 5694 5690 5686 5682 5678 5673 5669 5664 5659 5654 5649 5644 5639 5634
5696 5698 5700 5702 5703 5705 5706 5708 5709 5710 5711 5712 5713 5713 5714 5714 5714 5713 5713 5712 5710 5709 5707 5705 5703 5700 5697 5694 5691 5687 5683 5679 5675 5671 5666 5662 5657 5652 5648 5643 5639 5634 5629 5624
5695 5697 5699 5700 5702 5703 5705 5706 5707 5707 5708 5708 5709 5709 5709 5708 5708 5707 5705 5704 5702 5700 5698 5696 5693 5690 5687 5684 5680 5676 5672 5668 5664 5660 5655 5651 5646 5642 5638 5633 5629 5624 5620 5615
5694 5695 5697 5699 5700 5701 5702 5703 5703 5704 5704 5704 5704 5704 5703 5702 5701 5699 5698 5696 5694 5692 5689 5686 5683 5680 5677 5673 5669 5665 5661 5657 5653 5649 5645 5641 5637 5632 5628 5624 5620 5616 5611 5607
5692 5693 5695 5696 5697 5698 5699 5699 5699 5699 5699 5699 5698 5697 5696 5695 5693 5691 5689 5687 5685 5682 5679 5676 5673 5669 5666 5663 5659 5655 5651 5648 5644 5640 5636 5632 5628 5624 5620 5616 5612 5608 5603 5599
5690 5691 5692 5693 5694 5694 5695 5695 5695 5694 5694 5693 5692 5691 5689 5687 5685 5683 5680 5678 5675 5672 5669 5666 5663 5660 5656 5653 5649 5646 5642 5639 5635 5631 5628 5624 5620 5616 5612 5608 5604 5600 5596 5592
5687 5688 5689 5689 5690 5690 5690 5689 5689 5688 5687 5686 5684 5683 5681 5679 5676 5674 5671 5669 5666 5663 5660 5656 5653 5650 5647 5644 5641 5638 5634 5631 5628 5624 5620 5617 5613 5609 5606 5602 5598 5594 5590 5586
5684 5684 5684 5685 5685 5684 5684 5683 5682 5681 5680 5678 5676 5674 5672 5670 5668 5665 5663 5660 5657 5654 5651 5648 5645 5642 5639 5636 5633 5630 5627 5624 5621 5617 5614 5610 5607 5603 5599 5596 5592 5588 5584 5580